Time,TemperatureF,DewpointF,PressureIn,WindDirection,WindDirectionDegrees,WindSpeedMPH,WindSpeedGustMPH,Humidity,HourlyPrecipIn,Conditions,Clouds,dailyrainin,SoftwareType,DateUTC
2013-03-23 00:00:00,30.8,21.5,29.85,SSE,155,0.0,0.0,68,0.00,,,0.00,WeatherCatV1.02B3,2013-03-23 04:00:00,
2013-03-23 00:05:00,30.6,21.3,29.85,SSE,155,0.0,0.0,68,0.00,,,0.00,WeatherCatV1.02B3,2013-03-23 04:05:00,
2013-03-23 00:10:00,30.4,21.5,29.85,SSE,155,0.0,0.0,69,0.00,,,0.00,WeatherCatV1.02B3,2013-03-23 04:10:00,
2013-03-23 00:15:00,30.3,21.4,29.85,SSE,155,0.0,1.0,69,0.00,,,0.00,WeatherCatV1.02B3,2013-03-23 04:15:00,
2013-03-23 00:16:00,30.4,21.8,29.85,SSE,155,0.0,1.0,70,0.00,,,0.00,WeatherCatV1.02B3,2013-03-23 04:16:00,
2013-03-23 00:21:00,30.4,21.8,29.85,SSE,155,0.0,0.0,70,0.00,,,0.00,WeatherCatV1.02B3,2013-03-23 04:21:00,
2013-03-23 00:26:00,30.4,21.8,29.85,SSE,155,0.0,0.0,70,0.00,,,0.00,WeatherCatV1.02B3,2013-03-23 04:26:00,
2013-03-23 00:31:00,30.1,21.5,29.85,SSE,155,0.0,0.0,70,0.00,,,0.00,WeatherCatV1.02B3,2013-03-23 04:31:00,
2013-03-23 00:36:00,30.0,21.8,29.85,SSE,155,0.0,0.0,71,0.00,,,0.00,WeatherCatV1.02B3,2013-03-23 04:36:00,
2013-03-23 00:41:00,29.8,21.6,29.85,SSE,155,0.0,1.0,71,0.00,,,0.00,WeatherCatV1.02B3,2013-03-23 04:41:00,
2013-03-23 00:46:00,29.7,21.8,29.85,SSE,155,0.0,1.0,72,0.00,,,0.00,WeatherCatV1.02B3,2013-03-23 04:46:00,
2013-03-23 00:51:00,29.8,21.9,29.85,SSE,155,0.0,0.0,72,0.00,,,0.00,WeatherCatV1.02B3,2013-03-23 04:51:00,
2013-03-23 00:56:00,29.9,22.0,29.85,SSE,155,0.0,1.0,72,0.00,,,0.00,WeatherCatV1.02B3,2013-03-23 04:56:00,
2013-03-23 01:01:00,29.8,22.2,29.85,SSE,155,0.0,3.0,73,0.00,,,0.00,WeatherCatV1.02B3,2013-03-23 05:01:00,
2013-03-23 01:06:00,29.8,22.2,29.86,SSE,155,0.0,1.0,73,0.00,,,0.00,WeatherCatV1.02B3,2013-03-23 05:06:00,
2013-03-23 01:11:00,29.8,22.2,29.85,SSE,155,0.0,1.0,73,0.00,,,0.00,WeatherCatV1.02B3,2013-03-23 05:11:00,
2013-03-23 01:16:00,29.8,22.2,29.85,SSE,155,1.0,1.0,73,0.00,,,0.00,WeatherCatV1.02B3,2013-03-23 05:16:00,
2013-03-23 01:21:00,29.7,22.1,29.85,SSE,155,0.0,0.0,73,0.00,,,0.00,WeatherCatV1.02B3,2013-03-23 05:21:00,
2013-03-23 01:26:00,29.8,22.2,29.85,SSE,155,0.0,0.0,73,0.00,,,0.00,WeatherCatV1.02B3,2013-03-23 05:26:00,
2013-03-23 01:31:00,30.0,22.4,29.85,SSE,155,0.0,0.0,73,0.00,,,0.00,WeatherCatV1.02B3,2013-03-23 05:31:00,
2013-03-23 01:36:00,30.0,22.4,29.85,SSE,155,0.0,1.0,73,0.00,,,0.00,WeatherCatV1.02B3,2013-03-23 05:36:00,
2013-03-23 01:41:00,30.0,22.7,29.86,SSE,155,0.0,0.0,74,0.00,,,0.00,WeatherCatV1.02B3,2013-03-23 05:41:00,
2013-03-23 01:46:00,29.7,22.4,29.86,SSE,155,0.0,0.0,74,0.00,,,0.00,WeatherCatV1.02B3,2013-03-23 05:46:00,
2013-03-23 01:51:00,29.7,22.4,29.86,SSE,155,0.0,0.0,74,0.00,,,0.00,WeatherCatV1.02B3,2013-03-23 05:51:00,
2013-03-23 01:56:00,29.6,22.3,29.86,SSE,155,0.0,0.0,74,0.00,,,0.00,WeatherCatV1.02B3,2013-03-23 05:56:00,
2013-03-23 02:01:00,29.4,22.2,29.85,SSE,155,0.0,0.0,74,0.00,,,0.00,WeatherCatV1.02B3,2013-03-23 06:01:00,
2013-03-23 02:06:00,29.3,22.1,29.85,SSE,155,0.0,0.0,74,0.00,,,0.00,WeatherCatV1.02B3,2013-03-23 06:06:00,
2013-03-23 02:11:00,29.2,22.3,29.86,SSE,155,0.0,0.0,75,0.00,,,0.00,WeatherCatV1.02B3,2013-03-23 06:11:00,
2013-03-23 02:16:00,29.1,22.2,29.85,SSE,155,0.0,0.0,75,0.00,,,0.00,WeatherCatV1.02B3,2013-03-23 06:16:00,
2013-03-23 02:21:00,29.2,22.3,29.85,SSE,155,0.0,0.0,75,0.00,,,0.00,WeatherCatV1.02B3,2013-03-23 06:21:00,
2013-03-23 02:26:00,29.2,22.3,29.85,SSE,155,0.0,0.0,75,0.00,,,0.00,WeatherCatV1.02B3,2013-03-23 06:26:00,
2013-03-23 02:31:00,29.2,22.3,29.85,SSE,155,0.0,0.0,75,0.00,,,0.00,WeatherCatV1.02B3,2013-03-23 06:31:00,
2013-03-23 02:36:00,29.0,22.1,29.85,SSE,155,0.0,0.0,75,0.00,,,0.00,WeatherCatV1.02B3,2013-03-23 06:36:00,
2013-03-23 02:41:00,28.9,22.0,29.85,SSE,155,0.0,0.0,75,0.00,,,0.00,WeatherCatV1.02B3,2013-03-23 06:41:00,
2013-03-23 02:46:00,29.0,22.1,29.85,SSE,155,0.0,0.0,75,0.00,,,0.00,WeatherCatV1.02B3,2013-03-23 06:46:00,
2013-03-23 02:51:00,28.9,22.0,29.85,SSE,155,0.0,0.0,75,0.00,,,0.00,WeatherCatV1.02B3,2013-03-23 06:51:00,
2013-03-23 02:56:00,28.8,21.9,29.85,SSE,155,0.0,0.0,75,0.00,,,0.00,WeatherCatV1.02B3,2013-03-23 06:56:00,
2013-03-23 03:01:00,28.5,21.6,29.85,SSE,155,0.0,0.0,75,0.00,,,0.00,WeatherCatV1.02B3,2013-03-23 07:01:00,
2013-03-23 03:06:00,28.3,21.4,29.84,SSE,155,0.0,0.0,75,0.00,,,0.00,WeatherCatV1.02B3,2013-03-23 07:06:00,
2013-03-23 03:11:00,28.1,21.5,29.84,SSE,155,0.0,0.0,76,0.00,,,0.00,WeatherCatV1.02B3,2013-03-23 07:11:00,
2013-03-23 03:16:00,27.8,21.2,29.84,SSE,155,0.0,0.0,76,0.00,,,0.00,WeatherCatV1.02B3,2013-03-23 07:16:00,
2013-03-23 03:21:00,27.7,21.4,29.84,SSE,155,0.0,0.0,77,0.00,,,0.00,WeatherCatV1.02B3,2013-03-23 07:21:00,
2013-03-23 03:26:00,27.5,21.3,29.84,SSE,155,0.0,0.0,77,0.00,,,0.00,WeatherCatV1.02B3,2013-03-23 07:26:00,
2013-03-23 03:31:00,27.6,21.4,29.84,SSE,155,0.0,0.0,77,0.00,,,0.00,WeatherCatV1.02B3,2013-03-23 07:31:00,
2013-03-23 03:36:00,27.6,21.4,29.83,SSE,155,0.0,0.0,77,0.00,,,0.00,WeatherCatV1.02B3,2013-03-23 07:36:00,
2013-03-23 03:41:00,27.4,21.2,29.83,SSE,155,0.0,0.0,77,0.00,,,0.00,WeatherCatV1.02B3,2013-03-23 07:41:00,
2013-03-23 03:46:00,27.3,21.4,29.83,SSE,155,0.0,0.0,78,0.00,,,0.00,WeatherCatV1.02B3,2013-03-23 07:46:00,
2013-03-23 03:51:00,27.1,21.2,29.83,SSE,155,0.0,0.0,78,0.00,,,0.00,WeatherCatV1.02B3,2013-03-23 07:51:00,
2013-03-23 03:56:00,27.0,21.1,29.83,SSE,155,0.0,0.0,78,0.00,,,0.00,WeatherCatV1.02B3,2013-03-23 07:56:00,
2013-03-23 04:01:00,27.0,21.4,29.83,SSE,155,0.0,0.0,79,0.00,,,0.00,WeatherCatV1.02B3,2013-03-23 08:01:00,
2013-03-23 04:06:00,27.1,21.2,29.83,SSE,155,0.0,0.0,78,0.00,,,0.00,WeatherCatV1.02B3,2013-03-23 08:06:00,
2013-03-23 04:11:00,27.3,21.4,29.83,SSE,155,0.0,0.0,78,0.00,,,0.00,WeatherCatV1.02B3,2013-03-23 08:11:00,
2013-03-23 04:16:00,27.5,21.6,29.83,SSE,155,0.0,2.0,78,0.00,,,0.00,WeatherCatV1.02B3,2013-03-23 08:16:00,
2013-03-23 04:21:00,27.7,21.4,29.83,SSE,155,0.0,0.0,77,0.00,,,0.00,WeatherCatV1.02B3,2013-03-23 08:21:00,
2013-03-23 04:26:00,28.0,21.7,29.83,SSE,155,0.0,0.0,77,0.00,,,0.00,WeatherCatV1.02B3,2013-03-23 08:26:00,
2013-03-23 04:31:00,28.4,21.8,29.83,SSE,155,0.0,1.0,76,0.00,,,0.00,WeatherCatV1.02B3,2013-03-23 08:31:00,
2013-03-23 04:36:00,28.6,21.7,29.82,SSE,155,0.0,0.0,75,0.00,,,0.00,WeatherCatV1.02B3,2013-03-23 08:36:00,
2013-03-23 04:41:00,28.8,21.9,29.82,SSE,155,0.0,1.0,75,0.00,,,0.00,WeatherCatV1.02B3,2013-03-23 08:41:00,
2013-03-23 04:46:00,29.0,22.1,29.82,SSE,155,0.0,1.0,75,0.00,,,0.00,WeatherCatV1.02B3,2013-03-23 08:46:00,
2013-03-23 04:51:00,29.3,22.1,29.82,SSE,155,0.0,0.0,74,0.00,,,0.00,WeatherCatV1.02B3,2013-03-23 08:51:00,
2013-03-23 04:56:00,29.3,22.1,29.83,SSE,155,0.0,1.0,74,0.00,,,0.00,WeatherCatV1.02B3,2013-03-23 08:56:00,
2013-03-23 05:01:00,29.4,21.8,29.83,SSE,155,0.0,1.0,73,0.00,,,0.00,WeatherCatV1.02B3,2013-03-23 09:01:00,
2013-03-23 05:06:00,29.5,21.9,29.83,SSE,155,0.0,2.0,73,0.00,,,0.00,WeatherCatV1.02B3,2013-03-23 09:06:00,
2013-03-23 05:11:00,29.6,22.0,29.83,SSE,155,0.0,1.0,73,0.00,,,0.00,WeatherCatV1.02B3,2013-03-23 09:11:00,
2013-03-23 05:16:00,29.6,22.0,29.83,SSE,155,0.0,2.0,73,0.00,,,0.00,WeatherCatV1.02B3,2013-03-23 09:16:00,
2013-03-23 05:21:00,29.5,21.9,29.83,SSE,155,1.0,2.0,73,0.00,,,0.00,WeatherCatV1.02B3,2013-03-23 09:21:00,
2013-03-23 05:26:00,29.5,21.9,29.84,SSE,155,0.0,1.0,73,0.00,,,0.00,WeatherCatV1.02B3,2013-03-23 09:26:00,
2013-03-23 05:31:00,29.6,22.0,29.84,SSE,155,0.0,2.0,73,0.00,,,0.00,WeatherCatV1.02B3,2013-03-23 09:31:00,
2013-03-23 05:36:00,29.6,22.0,29.84,SSE,155,0.0,0.0,73,0.00,,,0.00,WeatherCatV1.02B3,2013-03-23 09:36:00,
2013-03-23 05:41:00,29.5,21.9,29.84,SSE,155,0.0,0.0,73,0.00,,,0.00,WeatherCatV1.02B3,2013-03-23 09:41:00,
2013-03-23 05:46:00,29.4,21.8,29.84,SSE,155,0.0,0.0,73,0.00,,,0.00,WeatherCatV1.02B3,2013-03-23 09:46:00,
2013-03-23 05:51:00,29.2,21.6,29.84,SSE,155,0.0,0.0,73,0.00,,,0.00,WeatherCatV1.02B3,2013-03-23 09:51:00,
2013-03-23 05:56:00,29.1,21.9,29.84,SSE,155,0.0,0.0,74,0.00,,,0.00,WeatherCatV1.02B3,2013-03-23 09:56:00,
2013-03-23 06:01:00,29.1,21.9,29.84,SSE,155,0.0,0.0,74,0.00,,,0.00,WeatherCatV1.02B3,2013-03-23 10:01:00,
2013-03-23 06:06:00,29.1,21.9,29.85,SSE,155,0.0,0.0,74,0.00,,,0.00,WeatherCatV1.02B3,2013-03-23 10:06:00,
2013-03-23 06:11:00,29.2,21.6,29.84,SSE,155,0.0,0.0,73,0.00,,,0.00,WeatherCatV1.02B3,2013-03-23 10:11:00,
2013-03-23 06:16:00,29.2,21.6,29.85,SSE,155,0.0,0.0,73,0.00,,,0.00,WeatherCatV1.02B3,2013-03-23 10:16:00,
2013-03-23 06:21:00,29.1,21.5,29.85,SSE,155,0.0,0.0,73,0.00,,,0.00,WeatherCatV1.02B3,2013-03-23 10:21:00,
2013-03-23 06:26:00,28.7,21.5,29.85,SSE,155,0.0,0.0,74,0.00,,,0.00,WeatherCatV1.02B3,2013-03-23 10:26:00,
2013-03-23 06:31:00,28.5,21.3,29.84,SSE,155,0.0,0.0,74,0.00,,,0.00,WeatherCatV1.02B3,2013-03-23 10:31:00,
2013-03-23 06:36:00,28.3,21.4,29.84,SSE,155,0.0,0.0,75,0.00,,,0.00,WeatherCatV1.02B3,2013-03-23 10:36:00,
2013-03-23 06:41:00,28.2,21.3,29.84,SSE,155,0.0,0.0,75,0.00,,,0.00,WeatherCatV1.02B3,2013-03-23 10:41:00,
2013-03-23 06:46:00,28.1,21.2,29.84,SSE,155,0.0,0.0,75,0.00,,,0.00,WeatherCatV1.02B3,2013-03-23 10:46:00,
2013-03-23 06:51:00,27.8,21.2,29.84,SSE,155,0.0,0.0,76,0.00,,,0.00,WeatherCatV1.02B3,2013-03-23 10:51:00,
2013-03-23 06:56:00,27.4,21.2,29.84,SSE,155,0.0,1.0,77,0.00,,,0.00,WeatherCatV1.02B3,2013-03-23 10:56:00,
2013-03-23 07:01:00,27.0,21.1,29.84,SSE,155,0.0,0.0,78,0.00,,,0.00,WeatherCatV1.02B3,2013-03-23 11:01:00,
2013-03-23 07:06:00,27.0,21.1,29.85,SSE,155,0.0,0.0,78,0.00,,,0.00,WeatherCatV1.02B3,2013-03-23 11:06:00,
2013-03-23 07:11:00,27.1,21.2,29.84,SSE,155,0.0,0.0,78,0.00,,,0.00,WeatherCatV1.02B3,2013-03-23 11:11:00,
2013-03-23 07:16:00,27.2,21.3,29.84,SSE,155,0.0,0.0,78,0.00,,,0.00,WeatherCatV1.02B3,2013-03-23 11:16:00,
2013-03-23 07:21:00,27.4,21.5,29.85,SSE,155,0.0,0.0,78,0.00,,,0.00,WeatherCatV1.02B3,2013-03-23 11:21:00,
2013-03-23 07:26:00,27.6,21.7,29.85,SSE,155,0.0,0.0,78,0.00,,,0.00,WeatherCatV1.02B3,2013-03-23 11:26:00,
2013-03-23 07:31:00,28.1,21.8,29.85,SSE,155,0.0,0.0,77,0.00,,,0.00,WeatherCatV1.02B3,2013-03-23 11:31:00,
2013-03-23 07:36:00,28.8,22.2,29.85,SSE,155,0.0,0.0,76,0.00,,,0.00,WeatherCatV1.02B3,2013-03-23 11:36:00,
2013-03-23 07:41:00,29.6,22.7,29.85,SSE,155,0.0,0.0,75,0.00,,,0.00,WeatherCatV1.02B3,2013-03-23 11:41:00,
2013-03-23 07:46:00,30.2,23.6,29.85,SSE,155,0.0,0.0,76,0.00,,,0.00,WeatherCatV1.02B3,2013-03-23 11:46:00,
2013-03-23 07:51:00,30.3,23.3,29.85,SSE,155,0.0,0.0,75,0.00,,,0.00,WeatherCatV1.02B3,2013-03-23 11:51:00,
2013-03-23 07:56:00,30.9,23.3,29.85,SSE,155,0.0,0.0,73,0.00,,,0.00,WeatherCatV1.02B3,2013-03-23 11:56:00,
2013-03-23 08:01:00,31.8,23.8,29.85,SSE,155,0.0,0.0,72,0.00,,,0.00,WeatherCatV1.02B3,2013-03-23 12:01:00,
2013-03-23 08:06:00,32.7,24.0,29.85,SSE,155,0.0,0.0,70,0.00,,,0.00,WeatherCatV1.02B3,2013-03-23 12:06:00,
2013-03-23 08:11:00,33.5,25.1,29.85,SSE,155,0.0,0.0,71,0.00,,,0.00,WeatherCatV1.02B3,2013-03-23 12:11:00,
2013-03-23 08:16:00,34.1,24.7,29.85,SSE,155,0.0,1.0,68,0.00,,,0.00,WeatherCatV1.02B3,2013-03-23 12:16:00,
2013-03-23 08:21:00,34.8,24.3,29.85,SSE,155,0.0,3.0,65,0.00,,,0.00,WeatherCatV1.02B3,2013-03-23 12:21:00,
2013-03-23 08:26:00,35.3,24.4,29.85,SSE,155,0.0,3.0,64,0.00,,,0.00,WeatherCatV1.02B3,2013-03-23 12:26:00,
2013-03-23 08:31:00,35.9,24.5,29.85,SSE,155,0.0,4.0,63,0.00,,,0.00,WeatherCatV1.02B3,2013-03-23 12:31:00,
2013-03-23 08:36:00,36.7,24.9,29.85,SSE,155,0.0,4.0,62,0.00,,,0.00,WeatherCatV1.02B3,2013-03-23 12:36:00,
2013-03-23 08:41:00,37.3,25.1,29.84,SSE,155,0.0,2.0,61,0.00,,,0.00,WeatherCatV1.02B3,2013-03-23 12:41:00,
2013-03-23 08:46:00,37.6,25.0,29.84,SSE,155,0.0,3.0,60,0.00,,,0.00,WeatherCatV1.02B3,2013-03-23 12:46:00,
2013-03-23 08:51:00,38.0,25.0,29.84,SSE,155,2.0,5.0,59,0.00,,,0.00,WeatherCatV1.02B3,2013-03-23 12:51:00,
2013-03-23 08:56:00,37.9,24.9,29.83,SSE,155,1.0,4.0,59,0.00,,,0.00,WeatherCatV1.02B3,2013-03-23 12:56:00,
2013-03-23 09:01:00,38.0,25.0,29.83,SSE,155,1.0,5.0,59,0.00,,,0.00,WeatherCatV1.02B3,2013-03-23 13:01:00,
2013-03-23 09:06:00,38.6,25.5,29.83,SSE,155,1.0,4.0,59,0.00,,,0.00,WeatherCatV1.02B3,2013-03-23 13:06:00,
2013-03-23 09:11:00,38.7,24.8,29.83,SSE,155,1.0,5.0,57,0.00,,,0.00,WeatherCatV1.02B3,2013-03-23 13:11:00,
2013-03-23 09:16:00,38.8,24.5,29.83,SSE,155,1.0,5.0,56,0.00,,,0.00,WeatherCatV1.02B3,2013-03-23 13:16:00,
2013-03-23 09:21:00,39.1,25.6,29.82,SSE,155,2.0,7.0,58,0.00,,,0.00,WeatherCatV1.02B3,2013-03-23 13:21:00,
2013-03-23 09:26:00,39.5,24.7,29.82,SSE,157,2.0,3.0,55,0.00,,,0.00,WeatherCatV1.02B3,2013-03-23 13:26:00,
2013-03-23 09:31:00,40.1,25.7,29.82,SSE,157,3.0,3.0,56,0.00,,,0.00,WeatherCatV1.02B3,2013-03-23 13:31:00,
2013-03-23 09:36:00,39.9,24.2,29.82,SSE,155,0.0,3.0,53,0.00,,,0.00,WeatherCatV1.02B3,2013-03-23 13:36:00,
2013-03-23 09:41:00,39.8,25.0,29.82,SSE,155,1.0,3.0,55,0.00,,,0.00,WeatherCatV1.02B3,2013-03-23 13:41:00,
2013-03-23 09:46:00,40.1,24.8,29.82,SSE,155,1.0,5.0,54,0.00,,,0.00,WeatherCatV1.02B3,2013-03-23 13:46:00,
2013-03-23 09:51:00,40.5,24.3,29.82,SSE,155,5.0,10.0,52,0.00,,,0.00,WeatherCatV1.02B3,2013-03-23 13:51:00,
2013-03-23 09:56:00,40.4,23.7,29.82,SSE,155,4.0,4.0,51,0.00,,,0.00,WeatherCatV1.02B3,2013-03-23 13:56:00,
2013-03-23 10:01:00,40.7,24.5,29.82,SSE,155,2.0,6.0,52,0.00,,,0.00,WeatherCatV1.02B3,2013-03-23 14:01:00,
2013-03-23 10:06:00,41.3,24.1,29.82,SSE,156,1.0,5.0,50,0.00,,,0.00,WeatherCatV1.02B3,2013-03-23 14:06:00,
2013-03-23 10:11:00,41.1,23.9,29.82,SSE,155,1.0,4.0,50,0.00,,,0.00,WeatherCatV1.02B3,2013-03-23 14:11:00,
2013-03-23 10:16:00,41.0,23.8,29.82,SSE,155,2.0,3.0,50,0.00,,,0.00,WeatherCatV1.02B3,2013-03-23 14:16:00,
2013-03-23 10:21:00,41.4,23.7,29.82,SSE,155,2.0,10.0,49,0.00,,,0.00,WeatherCatV1.02B3,2013-03-23 14:21:00,
2013-03-23 10:26:00,40.9,23.2,29.82,SSE,155,0.0,3.0,49,0.00,,,0.00,WeatherCatV1.02B3,2013-03-23 14:26:00,
2013-03-23 10:31:00,40.7,23.5,29.82,SSE,156,4.0,5.0,50,0.00,,,0.00,WeatherCatV1.02B3,2013-03-23 14:31:00,
2013-03-23 10:36:00,40.3,23.2,29.82,SSE,156,2.0,4.0,50,0.00,,,0.00,WeatherCatV1.02B3,2013-03-23 14:36:00,
2013-03-23 10:41:00,40.3,24.1,29.82,SSE,156,4.0,4.0,52,0.00,,,0.00,WeatherCatV1.02B3,2013-03-23 14:41:00,
2013-03-23 10:46:00,40.4,23.7,29.82,SSE,156,4.0,4.0,51,0.00,,,0.00,WeatherCatV1.02B3,2013-03-23 14:46:00,
2013-03-23 10:51:00,40.3,23.2,29.82,SSE,156,0.0,5.0,50,0.00,,,0.00,WeatherCatV1.02B3,2013-03-23 14:51:00,
2013-03-23 10:56:00,40.9,23.2,29.82,SSE,156,2.0,12.0,49,0.00,,,0.00,WeatherCatV1.02B3,2013-03-23 14:56:00,
2013-03-23 11:01:00,41.5,23.3,29.82,SSE,156,6.0,6.0,48,0.00,,,0.00,WeatherCatV1.02B3,2013-03-23 15:01:00,
2013-03-23 11:06:00,41.5,23.3,29.82,SSE,156,2.0,4.0,48,0.00,,,0.00,WeatherCatV1.02B3,2013-03-23 15:06:00,
2013-03-23 11:11:00,41.4,23.7,29.81,SSE,157,1.0,6.0,49,0.00,,,0.00,WeatherCatV1.02B3,2013-03-23 15:11:00,
2013-03-23 11:16:00,41.5,23.3,29.81,SSE,156,3.0,6.0,48,0.00,,,0.00,WeatherCatV1.02B3,2013-03-23 15:16:00,
2013-03-23 11:21:00,41.3,23.1,29.81,SSE,157,0.0,6.0,48,0.00,,,0.00,WeatherCatV1.02B3,2013-03-23 15:21:00,
2013-03-23 11:26:00,42.4,23.1,29.81,SSE,157,3.0,10.0,46,0.00,,,0.00,WeatherCatV1.02B3,2013-03-23 15:26:00,
2013-03-23 11:31:00,42.0,22.7,29.81,SSE,156,0.0,5.0,46,0.00,,,0.00,WeatherCatV1.02B3,2013-03-23 15:31:00,
2013-03-23 11:36:00,41.8,23.1,29.81,SSE,157,3.0,6.0,47,0.00,,,0.00,WeatherCatV1.02B3,2013-03-23 15:36:00,
2013-03-23 11:41:00,41.6,22.4,29.81,SSE,156,1.0,7.0,46,0.00,,,0.00,WeatherCatV1.02B3,2013-03-23 15:41:00,
2013-03-23 11:46:00,41.5,22.8,29.81,SSE,156,2.0,2.0,47,0.00,,,0.00,WeatherCatV1.02B3,2013-03-23 15:46:00,
2013-03-23 11:51:00,41.5,22.3,29.81,SSE,155,1.0,8.0,46,0.00,,,0.00,WeatherCatV1.02B3,2013-03-23 15:51:00,
2013-03-23 11:56:00,41.6,23.9,29.81,SSE,155,4.0,6.0,49,0.00,,,0.00,WeatherCatV1.02B3,2013-03-23 15:56:00,
2013-03-23 12:01:00,41.7,22.5,29.81,SSE,156,1.0,5.0,46,0.00,,,0.00,WeatherCatV1.02B3,2013-03-23 16:01:00,
2013-03-23 12:06:00,41.6,22.9,29.81,SSE,156,1.0,1.0,47,0.00,,,0.00,WeatherCatV1.02B3,2013-03-23 16:06:00,
2013-03-23 12:11:00,41.9,23.2,29.81,SSE,156,6.0,6.0,47,0.00,,,0.00,WeatherCatV1.02B3,2013-03-23 16:11:00,
2013-03-23 12:16:00,42.5,24.2,29.81,SSE,157,2.0,11.0,48,0.00,,,0.00,WeatherCatV1.02B3,2013-03-23 16:16:00,
2013-03-23 12:21:00,43.3,23.9,29.80,SSE,156,3.0,12.0,46,0.00,,,0.00,WeatherCatV1.02B3,2013-03-23 16:21:00,
2013-03-23 12:26:00,43.4,23.0,29.81,SSE,155,7.0,12.0,44,0.00,,,0.00,WeatherCatV1.02B3,2013-03-23 16:26:00,
2013-03-23 12:31:00,42.7,23.4,29.81,SSE,156,0.0,7.0,46,0.00,,,0.00,WeatherCatV1.02B3,2013-03-23 16:31:00,
2013-03-23 12:36:00,43.5,25.1,29.80,SSE,156,3.0,4.0,48,0.00,,,0.00,WeatherCatV1.02B3,2013-03-23 16:36:00,
2013-03-23 12:41:00,43.9,23.4,29.81,SSE,156,1.0,5.0,44,0.00,,,0.00,WeatherCatV1.02B3,2013-03-23 16:41:00,
2013-03-23 12:46:00,43.0,24.7,29.81,SSE,156,1.0,4.0,48,0.00,,,0.00,WeatherCatV1.02B3,2013-03-23 16:46:00,
2013-03-23 12:51:00,42.8,24.0,29.81,SSE,156,2.0,2.0,47,0.00,,,0.00,WeatherCatV1.02B3,2013-03-23 16:51:00,
2013-03-23 12:56:00,42.3,24.0,29.81,SSE,157,6.0,6.0,48,0.00,,,0.00,WeatherCatV1.02B3,2013-03-23 16:56:00,
2013-03-23 13:01:00,42.4,24.1,29.81,SSE,156,1.0,6.0,48,0.00,,,0.00,WeatherCatV1.02B3,2013-03-23 17:01:00,
2013-03-23 13:06:00,43.6,23.7,29.81,SSE,156,1.0,5.0,45,0.00,,,0.00,WeatherCatV1.02B3,2013-03-23 17:06:00,
2013-03-23 13:11:00,43.2,21.7,29.81,SSE,156,1.0,5.0,42,0.00,,,0.00,WeatherCatV1.02B3,2013-03-23 17:11:00,
2013-03-23 13:16:00,42.4,21.5,29.81,SSE,157,2.0,4.0,43,0.00,,,0.00,WeatherCatV1.02B3,2013-03-23 17:16:00,
2013-03-23 13:21:00,43.0,22.1,29.81,SSE,156,5.0,10.0,43,0.00,,,0.00,WeatherCatV1.02B3,2013-03-23 17:21:00,
2013-03-23 13:26:00,43.0,22.1,29.81,SSE,157,2.0,5.0,43,0.00,,,0.00,WeatherCatV1.02B3,2013-03-23 17:26:00,
2013-03-23 13:31:00,44.2,25.3,29.80,SSE,156,2.0,8.0,47,0.00,,,0.00,WeatherCatV1.02B3,2013-03-23 17:31:00,
2013-03-23 13:36:00,44.9,22.6,29.80,SSE,156,1.0,11.0,41,0.00,,,0.00,WeatherCatV1.02B3,2013-03-23 17:36:00,
2013-03-23 13:41:00,45.3,24.1,29.80,SSE,156,1.0,8.0,43,0.00,,,0.00,WeatherCatV1.02B3,2013-03-23 17:41:00,
2013-03-23 13:46:00,45.8,24.0,29.79,SSE,155,2.0,11.0,42,0.00,,,0.00,WeatherCatV1.02B3,2013-03-23 17:46:00,
2013-03-23 13:51:00,44.8,23.7,29.80,SSE,155,2.0,7.0,43,0.00,,,0.00,WeatherCatV1.02B3,2013-03-23 17:51:00,
2013-03-23 13:56:00,45.1,23.4,29.79,SSE,156,0.0,7.0,42,0.00,,,0.00,WeatherCatV1.02B3,2013-03-23 17:56:00,
2013-03-23 14:01:00,46.1,22.5,29.79,SSE,157,6.0,6.0,39,0.00,,,0.00,WeatherCatV1.02B3,2013-03-23 18:01:00,
2013-03-23 14:06:00,46.5,25.2,29.79,SSE,156,4.0,8.0,43,0.00,,,0.00,WeatherCatV1.02B3,2013-03-23 18:06:00,
2013-03-23 14:11:00,47.1,22.8,29.78,SSE,156,3.0,6.0,38,0.00,,,0.00,WeatherCatV1.02B3,2013-03-23 18:11:00,
2013-03-23 14:16:00,46.6,22.4,29.78,SSE,157,4.0,7.0,38,0.00,,,0.00,WeatherCatV1.02B3,2013-03-23 18:16:00,
2013-03-23 14:21:00,46.5,21.6,29.78,SSE,155,5.0,10.0,37,0.00,,,0.00,WeatherCatV1.02B3,2013-03-23 18:21:00,
2013-03-23 14:26:00,46.0,23.0,29.78,SSE,155,0.0,5.0,40,0.00,,,0.00,WeatherCatV1.02B3,2013-03-23 18:26:00,
2013-03-23 14:31:00,45.2,20.5,29.78,SSE,155,2.0,10.0,37,0.00,,,0.00,WeatherCatV1.02B3,2013-03-23 18:31:00,
2013-03-23 14:36:00,44.5,21.1,29.78,SSE,155,4.0,6.0,39,0.00,,,0.00,WeatherCatV1.02B3,2013-03-23 18:36:00,
2013-03-23 14:41:00,45.0,20.9,29.77,SSE,155,5.0,11.0,38,0.00,,,0.00,WeatherCatV1.02B3,2013-03-23 18:41:00,
2013-03-23 14:46:00,45.5,21.4,29.77,SSE,155,4.0,6.0,38,0.00,,,0.00,WeatherCatV1.02B3,2013-03-23 18:46:00,
2013-03-23 14:51:00,46.4,20.9,29.77,SSE,155,2.0,4.0,36,0.00,,,0.00,WeatherCatV1.02B3,2013-03-23 18:51:00,
2013-03-23 14:56:00,45.8,18.4,29.77,SSE,156,1.0,7.0,33,0.00,,,0.00,WeatherCatV1.02B3,2013-03-23 18:56:00,
2013-03-23 15:01:00,45.7,19.6,29.77,SSE,155,2.0,6.0,35,0.00,,,0.00,WeatherCatV1.02B3,2013-03-23 19:01:00,
2013-03-23 15:06:00,47.1,20.9,29.77,SSE,155,10.0,10.0,35,0.00,,,0.00,WeatherCatV1.02B3,2013-03-23 19:06:00,
2013-03-23 15:11:00,46.7,19.1,29.77,SSE,155,3.0,9.0,33,0.00,,,0.00,WeatherCatV1.02B3,2013-03-23 19:11:00,
2013-03-23 15:16:00,46.2,19.4,29.77,SSE,155,1.0,9.0,34,0.00,,,0.00,WeatherCatV1.02B3,2013-03-23 19:16:00,
2013-03-23 15:21:00,46.0,19.9,29.76,SSE,155,7.0,8.0,35,0.00,,,0.00,WeatherCatV1.02B3,2013-03-23 19:21:00,
2013-03-23 15:26:00,45.9,21.1,29.76,SSE,155,1.0,5.0,37,0.00,,,0.00,WeatherCatV1.02B3,2013-03-23 19:26:00,
2013-03-23 15:31:00,45.5,18.8,29.76,SSE,155,2.0,6.0,34,0.00,,,0.00,WeatherCatV1.02B3,2013-03-23 19:31:00,
2013-03-23 15:36:00,45.4,20.0,29.76,SSE,155,0.0,2.0,36,0.00,,,0.00,WeatherCatV1.02B3,2013-03-23 19:36:00,
2013-03-23 15:41:00,46.0,19.2,29.76,SSE,155,3.0,10.0,34,0.00,,,0.00,WeatherCatV1.02B3,2013-03-23 19:41:00,
2013-03-23 15:46:00,45.7,19.0,29.76,SSE,156,2.0,9.0,34,0.00,,,0.00,WeatherCatV1.02B3,2013-03-23 19:46:00,
2013-03-23 15:51:00,45.7,19.0,29.76,SSE,156,4.0,4.0,34,0.00,,,0.00,WeatherCatV1.02B3,2013-03-23 19:51:00,
2013-03-23 15:56:00,45.3,18.6,29.76,SSE,156,4.0,5.0,34,0.00,,,0.00,WeatherCatV1.02B3,2013-03-23 19:56:00,
2013-03-23 16:01:00,45.6,18.9,29.76,SSE,155,3.0,10.0,34,0.00,,,0.00,WeatherCatV1.02B3,2013-03-23 20:01:00,
2013-03-23 16:06:00,45.4,18.0,29.76,SSE,156,8.0,12.0,33,0.00,,,0.00,WeatherCatV1.02B3,2013-03-23 20:06:00,
2013-03-23 16:11:00,45.1,18.4,29.76,SSE,155,3.0,9.0,34,0.00,,,0.00,WeatherCatV1.02B3,2013-03-23 20:11:00,
2013-03-23 16:16:00,44.8,18.2,29.76,SSE,157,5.0,10.0,34,0.00,,,0.00,WeatherCatV1.02B3,2013-03-23 20:16:00,
2013-03-23 16:21:00,44.7,18.7,29.76,SSE,156,2.0,7.0,35,0.00,,,0.00,WeatherCatV1.02B3,2013-03-23 20:21:00,
2013-03-23 16:26:00,44.7,18.1,29.76,SSE,157,2.0,8.0,34,0.00,,,0.00,WeatherCatV1.02B3,2013-03-23 20:26:00,
2013-03-23 16:31:00,44.6,19.3,29.76,SSE,156,5.0,5.0,36,0.00,,,0.00,WeatherCatV1.02B3,2013-03-23 20:31:00,
2013-03-23 16:36:00,44.3,18.4,29.76,SSE,156,3.0,11.0,35,0.00,,,0.00,WeatherCatV1.02B3,2013-03-23 20:36:00,
2013-03-23 16:41:00,44.4,17.8,29.76,SSE,155,0.0,12.0,34,0.00,,,0.00,WeatherCatV1.02B3,2013-03-23 20:41:00,
2013-03-23 16:46:00,44.5,18.6,29.77,SSE,155,3.0,7.0,35,0.00,,,0.00,WeatherCatV1.02B3,2013-03-23 20:46:00,
2013-03-23 16:51:00,44.4,18.5,29.77,SSE,155,3.0,8.0,35,0.00,,,0.00,WeatherCatV1.02B3,2013-03-23 20:51:00,
2013-03-23 16:56:00,44.3,17.7,29.77,SSE,156,2.0,6.0,34,0.00,,,0.00,WeatherCatV1.02B3,2013-03-23 20:56:00,
2013-03-23 17:01:00,44.3,17.7,29.77,SSE,156,3.0,4.0,34,0.00,,,0.00,WeatherCatV1.02B3,2013-03-23 21:01:00,
2013-03-23 17:06:00,44.1,17.5,29.78,SSE,155,6.0,15.0,34,0.00,,,0.00,WeatherCatV1.02B3,2013-03-23 21:06:00,
2013-03-23 17:11:00,44.0,18.1,29.78,SSE,155,0.0,6.0,35,0.00,,,0.00,WeatherCatV1.02B3,2013-03-23 21:11:00,
2013-03-23 17:16:00,44.0,18.8,29.78,SSE,155,0.0,3.0,36,0.00,,,0.00,WeatherCatV1.02B3,2013-03-23 21:16:00,
2013-03-23 17:21:00,43.6,17.8,29.77,SSE,155,4.0,10.0,35,0.00,,,0.00,WeatherCatV1.02B3,2013-03-23 21:21:00,
2013-03-23 17:26:00,43.3,17.5,29.78,SSE,156,8.0,18.0,35,0.00,,,0.00,WeatherCatV1.02B3,2013-03-23 21:26:00,
2013-03-23 17:31:00,43.0,17.2,29.78,SSE,155,0.0,6.0,35,0.00,,,0.00,WeatherCatV1.02B3,2013-03-23 21:31:00,
2013-03-23 17:36:00,42.9,17.2,29.78,SSE,153,1.0,12.0,35,0.00,,,0.00,WeatherCatV1.02B3,2013-03-23 21:36:00,
2013-03-23 17:41:00,42.9,17.8,29.79,SSE,155,5.0,7.0,36,0.00,,,0.00,WeatherCatV1.02B3,2013-03-23 21:41:00,
2013-03-23 17:46:00,42.7,17.6,29.79,SSE,155,2.0,8.0,36,0.00,,,0.00,WeatherCatV1.02B3,2013-03-23 21:46:00,
2013-03-23 17:51:00,42.6,17.5,29.79,SSE,155,3.0,6.0,36,0.00,,,0.00,WeatherCatV1.02B3,2013-03-23 21:51:00,
2013-03-23 17:56:00,42.5,18.1,29.79,SSE,155,1.0,10.0,37,0.00,,,0.00,WeatherCatV1.02B3,2013-03-23 21:56:00,
2013-03-23 18:01:00,42.4,18.0,29.79,SSE,155,2.0,4.0,37,0.00,,,0.00,WeatherCatV1.02B3,2013-03-23 22:01:00,
2013-03-23 18:06:00,42.3,17.9,29.80,SSE,155,2.0,6.0,37,0.00,,,0.00,WeatherCatV1.02B3,2013-03-23 22:06:00,
2013-03-23 18:11:00,42.1,17.7,29.80,SSE,153,5.0,8.0,37,0.00,,,0.00,WeatherCatV1.02B3,2013-03-23 22:11:00,
2013-03-23 18:16:00,41.9,17.5,29.80,SSE,155,3.0,9.0,37,0.00,,,0.00,WeatherCatV1.02B3,2013-03-23 22:16:00,
2013-03-23 18:21:00,41.8,18.1,29.80,SSE,155,1.0,4.0,38,0.00,,,0.00,WeatherCatV1.02B3,2013-03-23 22:21:00,
2013-03-23 18:26:00,41.7,17.4,29.80,SSE,155,3.0,4.0,37,0.00,,,0.00,WeatherCatV1.02B3,2013-03-23 22:26:00,
2013-03-23 18:31:00,41.5,17.8,29.80,SSE,155,2.0,6.0,38,0.00,,,0.00,WeatherCatV1.02B3,2013-03-23 22:31:00,
2013-03-23 18:36:00,41.4,17.7,29.80,SSE,155,3.0,7.0,38,0.00,,,0.00,WeatherCatV1.02B3,2013-03-23 22:36:00,
2013-03-23 18:41:00,41.1,18.1,29.81,SSE,155,0.0,4.0,39,0.00,,,0.00,WeatherCatV1.02B3,2013-03-23 22:41:00,
2013-03-23 18:46:00,40.9,18.5,29.81,SSE,155,2.0,2.0,40,0.00,,,0.00,WeatherCatV1.02B3,2013-03-23 22:46:00,
2013-03-23 18:51:00,40.8,17.8,29.81,SSE,156,3.0,6.0,39,0.00,,,0.00,WeatherCatV1.02B3,2013-03-23 22:51:00,
2013-03-23 18:56:00,40.7,18.3,29.81,SSE,155,0.0,1.0,40,0.00,,,0.00,WeatherCatV1.02B3,2013-03-23 22:56:00,
2013-03-23 19:01:00,40.4,18.0,29.81,SSE,156,1.0,3.0,40,0.00,,,0.00,WeatherCatV1.02B3,2013-03-23 23:01:00,
2013-03-23 19:06:00,40.2,17.8,29.82,SSE,156,0.0,0.0,40,0.00,,,0.00,WeatherCatV1.02B3,2013-03-23 23:06:00,
2013-03-23 19:11:00,40.0,18.2,29.82,SSE,155,5.0,9.0,41,0.00,,,0.00,WeatherCatV1.02B3,2013-03-23 23:11:00,
2013-03-23 19:16:00,40.0,17.6,29.82,SSE,155,1.0,5.0,40,0.00,,,0.00,WeatherCatV1.02B3,2013-03-23 23:16:00,
2013-03-23 19:21:00,39.7,18.0,29.83,SSE,155,1.0,2.0,41,0.00,,,0.00,WeatherCatV1.02B3,2013-03-23 23:21:00,
2013-03-23 19:26:00,39.6,17.9,29.83,SSE,155,0.0,7.0,41,0.00,,,0.00,WeatherCatV1.02B3,2013-03-23 23:26:00,
2013-03-23 19:31:00,39.5,17.8,29.83,SSE,155,1.0,4.0,41,0.00,,,0.00,WeatherCatV1.02B3,2013-03-23 23:31:00,
2013-03-23 19:36:00,39.3,18.1,29.83,SSE,155,1.0,4.0,42,0.00,,,0.00,WeatherCatV1.02B3,2013-03-23 23:36:00,
2013-03-23 19:41:00,39.1,18.0,29.84,SSE,155,5.0,5.0,42,0.00,,,0.00,WeatherCatV1.02B3,2013-03-23 23:41:00,
2013-03-23 19:46:00,38.9,18.3,29.84,SSE,155,7.0,7.0,43,0.00,,,0.00,WeatherCatV1.02B3,2013-03-23 23:46:00,
2013-03-23 19:51:00,38.9,18.3,29.84,SSE,155,2.0,5.0,43,0.00,,,0.00,WeatherCatV1.02B3,2013-03-23 23:51:00,
2013-03-23 19:56:00,38.8,18.2,29.84,SSE,155,1.0,3.0,43,0.00,,,0.00,WeatherCatV1.02B3,2013-03-23 23:56:00,
2013-03-23 20:01:00,38.7,18.2,29.84,SSE,155,0.0,4.0,43,0.00,,,0.00,WeatherCatV1.02B3,2013-03-24 00:01:00,
2013-03-23 20:06:00,38.5,18.0,29.84,SSE,155,3.0,3.0,43,0.00,,,0.00,WeatherCatV1.02B3,2013-03-24 00:06:00,
2013-03-23 20:11:00,38.4,17.9,29.85,SSE,155,0.0,6.0,43,0.00,,,0.00,WeatherCatV1.02B3,2013-03-24 00:11:00,
2013-03-23 20:16:00,38.2,18.2,29.85,SSE,155,0.0,0.0,44,0.00,,,0.00,WeatherCatV1.02B3,2013-03-24 00:16:00,
2013-03-23 20:21:00,38.1,18.1,29.85,SSE,155,0.0,5.0,44,0.00,,,0.00,WeatherCatV1.02B3,2013-03-24 00:21:00,
2013-03-23 20:26:00,37.9,18.5,29.86,SSE,155,0.0,4.0,45,0.00,,,0.00,WeatherCatV1.02B3,2013-03-24 00:26:00,
2013-03-23 20:31:00,37.9,18.0,29.86,SSE,155,1.0,1.0,44,0.00,,,0.00,WeatherCatV1.02B3,2013-03-24 00:31:00,
2013-03-23 20:36:00,37.7,18.3,29.86,SSE,155,1.0,6.0,45,0.00,,,0.00,WeatherCatV1.02B3,2013-03-24 00:36:00,
2013-03-23 20:41:00,37.5,18.1,29.87,SSE,155,0.0,0.0,45,0.00,,,0.00,WeatherCatV1.02B3,2013-03-24 00:41:00,
2013-03-23 20:46:00,37.4,18.0,29.87,SSE,155,0.0,0.0,45,0.00,,,0.00,WeatherCatV1.02B3,2013-03-24 00:46:00,
2013-03-23 20:51:00,37.3,18.4,29.87,SSE,155,1.0,9.0,46,0.00,,,0.00,WeatherCatV1.02B3,2013-03-24 00:51:00,
2013-03-23 20:56:00,37.1,18.3,29.88,SSE,155,0.0,3.0,46,0.00,,,0.00,WeatherCatV1.02B3,2013-03-24 00:56:00,
2013-03-23 21:01:00,37.0,18.7,29.88,SSE,155,2.0,3.0,47,0.00,,,0.00,WeatherCatV1.02B3,2013-03-24 01:01:00,
2013-03-23 21:06:00,36.8,19.0,29.89,SSE,155,1.0,3.0,48,0.00,,,0.00,WeatherCatV1.02B3,2013-03-24 01:06:00,
2013-03-23 21:11:00,36.5,19.2,29.89,SSE,155,1.0,4.0,49,0.00,,,0.00,WeatherCatV1.02B3,2013-03-24 01:11:00,
2013-03-23 21:16:00,36.3,19.0,29.89,SSE,155,5.0,5.0,49,0.00,,,0.00,WeatherCatV1.02B3,2013-03-24 01:16:00,
2013-03-23 21:21:00,36.2,18.4,29.89,SSE,155,3.0,5.0,48,0.00,,,0.00,WeatherCatV1.02B3,2013-03-24 01:21:00,
2013-03-23 21:26:00,36.2,18.9,29.90,SSE,155,1.0,4.0,49,0.00,,,0.00,WeatherCatV1.02B3,2013-03-24 01:26:00,
2013-03-23 21:32:00,35.9,18.6,29.90,SSE,155,0.0,0.0,49,0.00,,,0.00,WeatherCatV1.02B3,2013-03-24 01:32:00,
2013-03-23 21:37:00,35.8,18.5,29.90,SSE,155,3.0,3.0,49,0.00,,,0.00,WeatherCatV1.02B3,2013-03-24 01:37:00,
2013-03-23 21:41:00,35.7,18.4,29.89,SSE,155,0.0,10.0,49,0.00,,,0.00,WeatherCatV1.02B3,2013-03-24 01:41:00,
2013-03-23 21:46:00,35.6,18.3,29.89,SSE,155,3.0,5.0,49,0.00,,,0.00,WeatherCatV1.02B3,2013-03-24 01:46:00,
2013-03-23 21:51:00,35.5,18.3,29.89,SSE,155,4.0,4.0,49,0.00,,,0.00,WeatherCatV1.02B3,2013-03-24 01:51:00,
2013-03-23 21:56:00,35.5,18.3,29.89,SSE,155,0.0,7.0,49,0.00,,,0.00,WeatherCatV1.02B3,2013-03-24 01:56:00,
2013-03-23 22:01:00,35.5,18.3,29.89,SSE,155,0.0,4.0,49,0.00,,,0.00,WeatherCatV1.02B3,2013-03-24 02:01:00,
2013-03-23 22:06:00,35.3,18.1,29.89,SSE,155,1.0,4.0,49,0.00,,,0.00,WeatherCatV1.02B3,2013-03-24 02:06:00,
2013-03-23 22:11:00,35.2,18.4,29.90,SSE,155,3.0,3.0,50,0.00,,,0.00,WeatherCatV1.02B3,2013-03-24 02:11:00,
2013-03-23 22:16:00,35.2,18.4,29.90,SSE,155,1.0,4.0,50,0.00,,,0.00,WeatherCatV1.02B3,2013-03-24 02:16:00,
2013-03-23 22:21:00,35.0,18.3,29.90,SSE,155,3.0,8.0,50,0.00,,,0.00,WeatherCatV1.02B3,2013-03-24 02:21:00,
2013-03-23 22:26:00,35.0,18.3,29.90,SSE,155,1.0,7.0,50,0.00,,,0.00,WeatherCatV1.02B3,2013-03-24 02:26:00,
2013-03-23 22:31:00,35.1,18.8,29.90,SSE,155,5.0,10.0,51,0.00,,,0.00,WeatherCatV1.02B3,2013-03-24 02:31:00,
2013-03-23 22:36:00,35.1,18.4,29.90,SSE,155,4.0,6.0,50,0.00,,,0.00,WeatherCatV1.02B3,2013-03-24 02:36:00,
2013-03-23 22:41:00,35.1,18.8,29.90,SSE,155,5.0,6.0,51,0.00,,,0.00,WeatherCatV1.02B3,2013-03-24 02:41:00,
2013-03-23 22:46:00,35.2,18.4,29.90,SSE,155,3.0,9.0,50,0.00,,,0.00,WeatherCatV1.02B3,2013-03-24 02:46:00,
2013-03-23 22:51:00,35.2,18.9,29.90,SSE,155,0.0,7.0,51,0.00,,,0.00,WeatherCatV1.02B3,2013-03-24 02:51:00,
2013-03-23 22:57:00,35.1,18.4,29.90,SSE,155,0.0,4.0,50,0.00,,,0.00,WeatherCatV1.02B3,2013-03-24 02:57:00,
2013-03-23 23:02:00,35.0,18.7,29.90,SSE,155,3.0,6.0,51,0.00,,,0.00,WeatherCatV1.02B3,2013-03-24 03:02:00,
2013-03-23 23:07:00,34.8,18.5,29.91,SSE,155,0.0,3.0,51,0.00,,,0.00,WeatherCatV1.02B3,2013-03-24 03:07:00,
2013-03-23 23:12:00,34.7,18.9,29.91,SSE,155,1.0,1.0,52,0.00,,,0.00,WeatherCatV1.02B3,2013-03-24 03:12:00,
2013-03-23 23:17:00,34.5,18.7,29.91,SSE,155,7.0,7.0,52,0.00,,,0.00,WeatherCatV1.02B3,2013-03-24 03:17:00,
2013-03-23 23:22:00,34.3,19.0,29.90,SSE,155,1.0,2.0,53,0.00,,,0.00,WeatherCatV1.02B3,2013-03-24 03:22:00,
2013-03-23 23:27:00,34.0,18.7,29.91,SSE,155,3.0,3.0,53,0.00,,,0.00,WeatherCatV1.02B3,2013-03-24 03:27:00,
2013-03-23 23:32:00,33.8,18.9,29.91,SSE,155,0.0,0.0,54,0.00,,,0.00,WeatherCatV1.02B3,2013-03-24 03:32:00,
2013-03-23 23:37:00,33.6,18.8,29.90,SSE,155,1.0,1.0,54,0.00,,,0.00,WeatherCatV1.02B3,2013-03-24 03:37:00,
2013-03-23 23:42:00,33.3,18.5,29.90,SSE,155,0.0,1.0,54,0.00,,,0.00,WeatherCatV1.02B3,2013-03-24 03:42:00,
2013-03-23 23:47:00,33.3,18.5,29.91,SSE,155,2.0,5.0,54,0.00,,,0.00,WeatherCatV1.02B3,2013-03-24 03:47:00,
2013-03-23 23:52:00,33.4,18.6,29.91,SSE,155,0.0,1.0,54,0.00,,,0.00,WeatherCatV1.02B3,2013-03-24 03:52:00,
2013-03-23 23:57:00,33.2,18.8,29.91,SSE,155,0.0,2.0,55,0.00,,,0.00,WeatherCatV1.02B3,2013-03-24 03:57:00,